When you browse on this site, cookies collect data to enhance your experience and personalize the content and advertising you see.
Visit our Privacy Policy to learn more. By continuing to use the site, you agree to this use of cookies and data.
  • In Austria
  • List of Countries
  • For 7 days
  • Water Temperature
  • Weather Map
  • News
  • Weather Widgets
  • user-avatar
    Login

    Hourly Weather Supata

    Today, 26 January, Sunday

    Time Temperature Precipitation Wind Pressure Humidity
    00:00 +18°C° 0 mm 1 mps 616 mmHg 95%
    01:00 +16°C° 0 mm 1 mps 616 mmHg 95%
    02:00 +16°C° 0 mm 1 mps 616 mmHg 95%
    03:00 +16°C° 0 mm 1 mps 615 mmHg 94%
    04:00 +16°C° 0 mm 1 mps 615 mmHg 94%
    05:00 +15°C° 0 mm 0 mps 616 mmHg 93%
    06:00 +15°C° 0 mm 0 mps 616 mmHg 93%
    07:00 +16°C° 0 mm 0 mps 616 mmHg 92%
    08:00 +20°C° 0.1 mm 1 mps 617 mmHg 85%
    09:00 +21°C° 0.1 mm 1 mps 619 mmHg 78%
    10:00 +23°C° 0.1 mm 1 mps 620 mmHg 72%
    11:00 +23°C° 0.3 mm 1 mps 619 mmHg 74%
    12:00 +23°C° 0.3 mm 1 mps 618 mmHg 76%
    13:00 +23°C° 0.3 mm 2 mps 617 mmHg 77%
    14:00 +23°C° 0.7 mm 1 mps 617 mmHg 81%
    15:00 +22°C° 0.7 mm 1 mps 616 mmHg 85%
    16:00 +21°C° 0.7 mm 1 mps 615 mmHg 89%
    17:00 +20°C° 0.4 mm 1 mps 616 mmHg 92%
    18:00 +18°C° 0.4 mm 0 mps 616 mmHg 94%
    19:00 +17°C° 0.4 mm 0 mps 616 mmHg 97%
    20:00 +16°C° 0.3 mm 0 mps 616 mmHg 97%
    21:00 +16°C° 0.3 mm 0 mps 617 mmHg 96%
    22:00 +16°C° 0.3 mm 0 mps 617 mmHg 96%
    23:00 +16°C° 0.3 mm 0 mps 617 mmHg 96%

    Tomorrow, 27 January, Monday

    Time Temperature Precipitation Wind Pressure Humidity
    00:00 +16°C° 0.3 mm 0 mps 616 mmHg 96%
    01:00 +16°C° 0.3 mm 0 mps 616 mmHg 96%
    02:00 +15°C° 0.2 mm 0 mps 616 mmHg 96%
    03:00 +15°C° 0.2 mm 0 mps 615 mmHg 96%
    04:00 +15°C° 0.2 mm 0 mps 615 mmHg 96%
    05:00 +15°C° 0 mm 0 mps 615 mmHg 95%
    06:00 +15°C° 0 mm 0 mps 616 mmHg 94%
    07:00 +16°C° 0 mm 0 mps 617 mmHg 93%
    08:00 +19°C° 0.2 mm 1 mps 617 mmHg 87%
    09:00 +21°C° 0.2 mm 1 mps 618 mmHg 82%
    10:00 +23°C° 0.2 mm 1 mps 619 mmHg 76%
    11:00 +23°C° 0.6 mm 1 mps 619 mmHg 74%
    12:00 +24°C° 0.6 mm 1 mps 618 mmHg 72%
    13:00 +25°C° 0.6 mm 1 mps 618 mmHg 70%
    14:00 +24°C° 0.7 mm 1 mps 617 mmHg 75%
    15:00 +23°C° 0.7 mm 1 mps 616 mmHg 79%
    16:00 +22°C° 0.7 mm 1 mps 616 mmHg 83%
    17:00 +21°C° 0.9 mm 1 mps 616 mmHg 87%
    18:00 +20°C° 0.9 mm 1 mps 616 mmHg 91%
    19:00 +17°C° 0.9 mm 0 mps 616 mmHg 96%
    20:00 +16°C° 0.3 mm 0 mps 616 mmHg 95%
    21:00 +16°C° 0.3 mm 0 mps 616 mmHg 94%
    22:00 +16°C° 0.3 mm 0 mps 617 mmHg 94%
    23:00 +16°C° 0 mm 0 mps 616 mmHg 94%

    Day after tomorrow, 28 January, Tuesday

    Time Temperature Precipitation Wind Pressure Humidity
    00:00 +15°C° 0 mm 0 mps 616 mmHg 94%
    01:00 +16°C° 0 mm 1 mps 616 mmHg 94%
    02:00 +16°C° 0 mm 1 mps 616 mmHg 94%
    03:00 +16°C° 0 mm 1 mps 615 mmHg 94%
    04:00 +16°C° 0 mm 1 mps 615 mmHg 94%
    05:00 +15°C° 0 mm 0 mps 615 mmHg 93%
    06:00 +15°C° 0 mm 0 mps 616 mmHg 92%
    07:00 +15°C° 0 mm 0 mps 616 mmHg 91%
    08:00 +19°C° 0.1 mm 1 mps 617 mmHg 84%
    09:00 +21°C° 0.1 mm 1 mps 618 mmHg 77%
    10:00 +23°C° 0.1 mm 1 mps 619 mmHg 70%
    11:00 +24°C° 0.3 mm 1 mps 618 mmHg 71%
    12:00 +24°C° 0.3 mm 1 mps 618 mmHg 71%
    13:00 +24°C° 0.3 mm 1 mps 617 mmHg 71%
    14:00 +23°C° 0.7 mm 1 mps 616 mmHg 76%
    15:00 +23°C° 0.7 mm 1 mps 616 mmHg 80%
    16:00 +22°C° 0.7 mm 1 mps 615 mmHg 85%
    17:00 +21°C° 0.5 mm 1 mps 615 mmHg 88%
    18:00 +18°C° 0.5 mm 0 mps 615 mmHg 92%
    19:00 +17°C° 0.5 mm 0 mps 615 mmHg 96%
    20:00 +16°C° 0.2 mm 0 mps 615 mmHg 96%
    21:00 +16°C° 0.2 mm 0 mps 615 mmHg 96%
    22:00 +16°C° 0.2 mm 0 mps 616 mmHg 95%
    23:00 +16°C° 0 mm 0 mps 616 mmHg 96%

    29 January, Wednesday

    Time Temperature Precipitation Wind Pressure Humidity
    00:00 +15°C° 0 mm 0 mps 615 mmHg 96%
    01:00 +15°C° 0 mm 0 mps 615 mmHg 96%
    02:00 +15°C° 0 mm 0 mps 615 mmHg 96%
    03:00 +15°C° 0 mm 0 mps 615 mmHg 95%
    04:00 +15°C° 0 mm 0 mps 615 mmHg 95%
    05:00 +15°C° 0 mm 0 mps 615 mmHg 94%
    06:00 +15°C° 0 mm 0 mps 616 mmHg 92%
    07:00 +15°C° 0 mm 0 mps 616 mmHg 91%
    08:00 +19°C° 0 mm 1 mps 617 mmHg 83%
    09:00 +22°C° 0 mm 1 mps 618 mmHg 75%
    10:00 +24°C° 0 mm 1 mps 619 mmHg 67%
    11:00 +24°C° 0.3 mm 1 mps 618 mmHg 68%
    12:00 +24°C° 0.3 mm 2 mps 618 mmHg 68%
    13:00 +25°C° 0.3 mm 2 mps 617 mmHg 68%
    14:00 +24°C° 0.7 mm 2 mps 616 mmHg 73%
    15:00 +23°C° 0.7 mm 1 mps 616 mmHg 78%
    16:00 +22°C° 0.7 mm 1 mps 615 mmHg 83%
    17:00 +21°C° 1 mm 1 mps 615 mmHg 87%
    18:00 +20°C° 1 mm 1 mps 615 mmHg 91%
    19:00 +17°C° 1 mm 0 mps 615 mmHg 96%
    20:00 +16°C° 0.3 mm 0 mps 615 mmHg 96%
    21:00 +16°C° 0.3 mm 0 mps 615 mmHg 95%
    22:00 +16°C° 0.3 mm 0 mps 616 mmHg 95%
    23:00 +16°C° 0 mm 0 mps 615 mmHg 95%

    30 January, Thursday

    Time Temperature Precipitation Wind Pressure Humidity
    00:00 +15°C° 0 mm 0 mps 615 mmHg 95%
    01:00 +15°C° 0 mm 0 mps 615 mmHg 95%
    02:00 +15°C° 0 mm 0 mps 615 mmHg 95%
    03:00 +15°C° 0 mm 0 mps 614 mmHg 95%
    04:00 +15°C° 0 mm 0 mps 614 mmHg 95%
    05:00 +16°C° 0 mm 1 mps 615 mmHg 94%
    06:00 +16°C° 0 mm 1 mps 616 mmHg 92%
    07:00 +16°C° 0 mm 1 mps 616 mmHg 91%
    08:00 +19°C° 0.1 mm 1 mps 617 mmHg 85%
    09:00 +21°C° 0.1 mm 1 mps 618 mmHg 78%
    10:00 +23°C° 0.1 mm 1 mps 618 mmHg 72%
    11:00 +23°C° 0.4 mm 1 mps 618 mmHg 73%
    12:00 +24°C° 0.4 mm 1 mps 617 mmHg 73%
    13:00 +24°C° 0.4 mm 1 mps 616 mmHg 74%
    14:00 +23°C° 0.9 mm 1 mps 616 mmHg 78%
    15:00 +23°C° 0.9 mm 1 mps 615 mmHg 81%
    16:00 +20°C° 0.9 mm 0 mps 614 mmHg 85%
    17:00 +19°C° 1.1 mm 0 mps 615 mmHg 88%
    18:00 +18°C° 1.1 mm 0 mps 615 mmHg 91%
    19:00 +17°C° 1.1 mm 0 mps 615 mmHg 94%
    20:00 +17°C° 0.6 mm 0 mps 615 mmHg 94%
    21:00 +16°C° 0.6 mm 0 mps 615 mmHg 94%
    22:00 +18°C° 0.6 mm 1 mps 616 mmHg 93%
    23:00 +18°C° 0.1 mm 1 mps 615 mmHg 93%

    31 January, Friday

    Time Temperature Precipitation Wind Pressure Humidity
    00:00 +16°C° 0.1 mm 1 mps 615 mmHg 93%
    01:00 +16°C° 0.1 mm 1 mps 615 mmHg 93%
    02:00 +15°C° 0 mm 1 mps 614 mmHg 93%
    03:00 +15°C° 0 mm 1 mps 614 mmHg 92%
    04:00 +15°C° 0 mm 1 mps 614 mmHg 92%
    05:00 +15°C° 0 mm 1 mps 614 mmHg 91%
    06:00 +15°C° 0 mm 2 mps 615 mmHg 90%
    07:00 +15°C° 0 mm 2 mps 615 mmHg 89%
    08:00 +19°C° 0 mm 1 mps 616 mmHg 79%
    09:00 +22°C° 0 mm 1 mps 617 mmHg 68%
    10:00 +24°C° 0 mm 1 mps 619 mmHg 58%
    11:00 +25°C° 0.1 mm 1 mps 618 mmHg 57%
    12:00 +25°C° 0.1 mm 2 mps 618 mmHg 56%
    13:00 +26°C° 0.1 mm 2 mps 617 mmHg 55%
    14:00 +25°C° 0.3 mm 2 mps 616 mmHg 60%
    15:00 +25°C° 0.3 mm 2 mps 616 mmHg 65%
    16:00 +24°C° 0.3 mm 1 mps 615 mmHg 70%
    17:00 +22°C° 0.4 mm 1 mps 615 mmHg 76%
    18:00 +20°C° 0.4 mm 1 mps 615 mmHg 83%
    19:00 +19°C° 0.4 mm 1 mps 615 mmHg 89%
    20:00 +18°C° 0.2 mm 1 mps 615 mmHg 89%
    21:00 +16°C° 0.2 mm 1 mps 615 mmHg 88%
    22:00 +16°C° 0.2 mm 2 mps 615 mmHg 87%
    23:00 +16°C° 0 mm 2 mps 615 mmHg 88%
    Show more